Overview Statistics Trail Chart Weather Telemetry Raw packets
 

This is the latest recevied weather packets stored in our database for station/object WW6Q. If no packets are shown the sender has not sent any weather packets the latest 10 day(s).

<< 1 2 3 4 >>
Time Temp. Humidity Pressure Rain* Wind** Luminosity Snow
1788640111 25° C 82% 1013.5 hPa 0 mm - 217 W/m² -
1788639805 25° C 82% 1013.7 hPa 0 mm - 231 W/m² -
1788639501 25° C 81% 1013.6 hPa 0 mm - 167 W/m² -
1788639197 25.56° C 80% 1013.5 hPa 0 mm - 136 W/m² -
1788638896 25.56° C 81% 1013.6 hPa 0 mm - 182 W/m² -
1788638593 25.56° C 81% 1013.7 hPa 0 mm - 182 W/m² -
1788638290 25° C 80% 1013.7 hPa 0 mm - 117 W/m² -
1788637985 25.56° C 80% 1013.6 hPa 0 mm - 134 W/m² -
1788637682 25° C 81% 1013.7 hPa 0 mm - 160 W/m² -
1788637381 25.56° C 80% 1013.7 hPa 0 mm - 144 W/m² -
1788637080 25.56° C 81% 1013.7 hPa 0 mm - 144 W/m² -
1788636775 25.56° C 80% 1013.9 hPa 0 mm - 155 W/m² -
1788636470 25° C 81% 1013.7 hPa 0 mm - 112 W/m² -
1788636167 25° C 81% 1013.7 hPa 0 mm - 92 W/m² -
1788635866 25° C 80% 1014 hPa 0 mm - 104 W/m² -
1788635565 25° C 80% 1014 hPa 0 mm - 107 W/m² -
1788635263 25° C 80% 1013.7 hPa 0 mm - 120 W/m² -
1788634962 25° C 80% 1014 hPa 0 mm - 114 W/m² -
1788634656 25.56° C 79% 1014 hPa 0 mm - 112 W/m² -
1788634351 25.56° C 78% 1014.1 hPa 0 mm - 127 W/m² -
1788634051 25.56° C 81% 1014.1 hPa 0 mm - 133 W/m² -
1788633750 25.56° C 78% 1014 hPa 0 mm - 161 W/m² -
1788633449 26.11° C 77% 1014 hPa 0 mm - 255 W/m² -
1788633145 25.56° C 79% 1014 hPa 0 mm - 283 W/m² -
1788632845 25.56° C 81% 1014.1 hPa 0 mm - 213 W/m² -

* Rain latest hour (hover to see other rain measurements)
** Current wind speed in m/s (hover to see current wind gust speed)